CW8095 Weather Reports


time (UTC)temp
F
wind
direction
speed
knots
gust
knots
rain 1hr
in
rain 24hr
in
rain mn
in
humidity
%
barometer
mb
20260901201016 100 84 3.5 8.7 0.00 0.00 0.00 26 1014.5
20260901200026 99 49 1.7 5.2 0.00 0.00 0.00 27 1014.5
20260901195021 98 177 2.6 6.1 0.00 0.00 0.00 28 1014.7
20260901194016 99 150 3.5 7.8 0.00 0.00 0.00 27 1014.7
20260901193026 96 131 2.6 5.2 0.00 0.00 0.00 29 1014.9
20260901192021 97 68 3.5 8.7 0.00 0.00 0.00 29 1015.1
20260901191017 99 125 1.7 6.1 0.00 0.00 0.00 27 1015.2
20260901190027 100 69 3.5 8.7 0.00 0.00 0.00 27 1015.4
20260901185022 99 135 1.7 5.2 0.00 0.00 0.00 28 1015.5
20260901184037 98 101 3.5 7.8 0.00 0.00 0.00 29 1015.8
20260901183047 97 145 0.9 3.5 0.00 0.00 0.00 30 1016.1
20260901182022 96 116 2.6 7.0 0.00 0.00 0.00 31 1016.3
20260901181017 96 94 4.3 8.7 0.00 0.00 0.00 31 1016.4
20260901180027 95 154 1.7 6.1 0.00 0.00 0.00 32 1016.5
20260901175022 97 85 2.6 7.0 0.00 0.00 0.00 30 1016.6
20260901174018 98 56 3.5 7.0 0.00 0.00 0.00 30 1016.7
20260901173027 98 72 1.7 6.1 0.00 0.00 0.00 30 1016.9
20260901172023 98 89 0.9 3.5 0.00 0.00 0.00 30 1017.0
20260901171018 95 64 2.6 5.2 0.00 0.00 0.00 33 1017.1
20260901170028 94 194 0.9 6.1 0.00 0.00 0.00 33 1017.2
20260901165023 94 132 2.6 6.1 0.00 0.00 0.00 34 1017.3
20260901164059 94 146 1.7 5.2 0.00 0.00 0.00 35 1017.4
20260901163028 94 244 0.9 2.6 0.00 0.00 0.00 35 1017.6
20260901162023 92 163 1.7 6.1 0.00 0.00 0.00 36 1017.6
20260901161018 92 146 1.7 5.2 0.00 0.00 0.00 37 1017.5
20260901160028 91 167 1.7 6.1 0.00 0.00 0.00 38 1017.6
20260901155023 91 161 1.7 7.0 0.00 0.00 0.00 38 1017.5
20260901154018 89 171 1.7 6.1 0.00 0.00 0.00 40 1017.5
20260901153028 88 227 0.9 2.6 0.00 0.00 0.00 42 1017.5
20260901152023 89 156 2.6 7.8 0.00 0.00 0.00 41 1017.4
20260901151019 88 161 0.9 3.5 0.00 0.00 0.00 45 1017.6
20260901150028 86 144 0.9 2.6 0.00 0.00 0.00 46 1017.5
20260901145024 85 159 0.9 3.5 0.00 0.00 0.00 49 1017.5
20260901144019 84 160 0.9 3.5 0.00 0.00 0.00 50 1017.6
20260901143029 83 167 0.9 3.5 0.00 0.00 0.00 51 1017.7
20260901142024 82 191 0.0 0.9 0.00 0.00 0.00 54 1017.7
20260901141019 81 163 0.9 3.5 0.00 0.00 0.00 56 1017.7
20260901140049 79 174 1.7 5.2 0.00 0.00 0.00 58 1017.7
20260901135024 78 151 1.7 5.2 0.00 0.00 0.00 60 1017.7
20260901134020 77 154 0.9 2.6 0.00 0.00 0.00 62 1017.7
20260901133030 76 152 0.9 3.5 0.00 0.00 0.00 63 1017.6
20260901132025 75 153 1.7 5.2 0.00 0.00 0.00 64 1017.6
20260901131020 74 160 0.0 0.9 0.00 0.00 0.00 63 1017.5
20260901130030 74 160 0.0 0.9 0.00 0.00 0.00 63 1017.5
20260901125025 73 160 0.0 0.9 0.00 0.00 0.00 64 1017.1
20260901124021 73 160 0.0 0.9 0.00 0.00 0.00 64 1017.0
20260901123015 73 160 0.0 0.9 0.00 0.00 0.00 64 1017.1
20260901122026 72 160 0.0 0.9 0.00 0.00 0.00 64 1016.9
20260901121020 72 160 0.9 1.7 0.00 0.00 0.00 64 1016.7
20260901120015 72 0.0 0.0 0.00 0.00 0.00 64 1016.7
20260901115025 72 160 0.0 1.7 0.00 0.00 0.00 64 1016.5
20260901114021 72 160 0.0 1.7 0.00 0.00 0.00 64 1016.6
20260901113016 72 160 0.9 1.7 0.00 0.00 0.00 63 1016.5
20260901112025 73 145 0.0 1.7 0.00 0.00 0.00 62 1016.4
20260901111020 73 137 0.0 0.9 0.00 0.00 0.00 62 1016.4
20260901110035 73 140 0.9 2.6 0.00 0.00 0.00 61 1016.2
20260901105025 73 160 0.9 2.6 0.00 0.00 0.00 61 1016.2
20260901104020 73 164 0.9 1.7 0.00 0.00 0.00 62 1016.2
20260901103015 73 165 0.0 0.9 0.00 0.00 0.00 62 1016.2
20260901102025 73 0.0 0.0 0.00 0.00 0.00 62 1016.2
20260901101021 74 164 0.0 1.7 0.00 0.00 0.00 60 1016.3
20260901100016 74 165 0.9 2.6 0.00 0.00 0.00 59 1016.2
20260901095026 74 166 0.9 1.7 0.00 0.00 0.00 58 1016.2
20260901093524 74 161 0.0 0.9 0.00 0.00 0.00 57 1016.2
20260901093027 75 165 0.9 2.6 0.00 0.00 0.00 57 1016.3
20260901092023 75 156 0.9 2.6 0.00 0.00 0.00 57 1016.4
20260901091018 75 161 1.7 3.5 0.00 0.00 0.00 56 1016.3
20260901090029 75 169 0.9 3.5 0.00 0.00 0.00 56 1016.3
20260901085024 76 164 0.9 1.7 0.00 0.00 0.00 55 1016.0
20260901084040 76 166 0.9 3.5 0.00 0.00 0.00 55 1016.2
20260901083036 76 162 1.7 3.5 0.00 0.00 0.00 54 1016.2
20260901082026 77 162 1.7 5.2 0.00 0.00 0.00 53 1016.2
20260901081022 77 154 1.7 3.5 0.00 0.00 0.00 53 1016.2
20260901080017 77 144 1.7 5.2 0.00 0.00 0.00 52 1016.1
20260901075026 78 161 2.6 7.8 0.00 0.00 0.00 51 1016.2
20260901074030 78 144 1.7 6.1 0.00 0.00 0.00 51 1016.2
20260901073032 78 162 1.7 7.0 0.00 0.00 0.00 51 1016.1
20260901072028 78 148 2.6 6.1 0.00 0.00 0.00 50 1016.1
20260901071025 78 153 1.7 6.1 0.00 0.00 0.00 49 1016.0
20260901070022 78 153 2.6 7.0 0.00 0.00 0.00 48 1015.9
20260901065044 78 125 1.7 3.5 0.00 0.00 0.00 47 1015.8
20260901064034 78 136 0.9 2.6 0.00 0.00 0.00 45 1015.7
20260901063035 78 142 0.9 1.7 0.00 0.00 0.00 45 1015.5
20260901062025 78 156 1.7 3.5 0.00 0.00 0.00 45 1015.5
20260901061110 78 142 1.7 5.2 0.00 0.00 0.00 44 1015.5
20260901060029 78 128 1.7 6.1 0.00 0.00 0.00 43 1015.3
20260901055033 78 126 1.7 3.5 0.00 0.00 0.00 43 1015.3
20260901054024 78 134 0.9 1.7 0.00 0.00 0.00 42 1015.1
20260901053058 78 130 0.9 3.5 0.00 0.00 0.00 42 1015.1
20260901052033 78 123 0.9 2.6 0.00 0.00 0.00 41 1015.0
20260901051043 78 138 0.9 3.5 0.00 0.00 0.00 41 1015.0
20260901050024 78 152 0.9 1.7 0.00 0.00 0.00 41 1014.8
20260901045027 79 152 0.0 1.7 0.00 0.00 0.00 40 1014.8
20260901044017 79 152 0.0 0.9 0.00 0.00 0.00 39 1014.9
20260901043031 79 152 0.0 1.7 0.00 0.00 0.00 38 1014.7
20260901042029 80 152 0.9 1.7 0.00 0.00 0.00 38 1014.8
20260901041108 80 152 0.0 1.7 0.00 0.00 0.00 37 1014.7
20260901040041 80 154 0.0 1.7 0.00 0.00 0.00 37 1014.9
20260901035050 81 148 0.0 1.7 0.00 0.00 0.00 36 1014.9
20260901034024 81 145 0.0 0.9 0.00 0.00 0.00 35 1014.9
20260901033020 81 145 0.0 1.7 0.00 0.00 0.00 35 1014.9
20260901032027 82 138 0.9 2.6 0.00 0.00 0.00 34 1014.8
20260901031023 82 132 0.9 1.7 0.00 0.00 0.00 33 1014.7
20260901030043 83 129 0.9 2.6 0.00 0.00 0.00 32 1014.6
20260901025019 83 148 1.7 2.6 0.00 0.00 0.00 32 1014.4
20260901024030 83 148 0.9 3.5 0.00 0.00 0.00 31 1014.5
20260901023025 84 133 0.9 2.6 0.00 0.00 0.00 30 1014.3
20260901022121 84 140 0.9 2.6 0.00 0.00 0.00 30 1014.2
20260901021016 85 136 0.9 3.5 0.00 0.00 0.00 30 1014.1
20260901015530 86 135 0.9 2.6 0.00 0.00 0.00 29 1013.9
20260901014546 86 142 0.9 2.6 0.00 0.00 0.00 29 1013.7
20260901013521 86 131 1.7 3.5 0.00 0.00 0.00 28 1013.8
20260901012537 87 126 1.7 3.5 0.00 0.00 0.00 28 1013.8
20260901011527 88 130 1.7 6.1 0.00 0.00 0.00 28 1013.7
20260901010543 88 134 1.7 3.5 0.00 0.00 0.00 27 1013.6
20260901005559 89 126 2.6 3.5 0.00 0.00 0.00 27 1013.5
20260901004530 89 149 1.7 6.1 0.00 0.00 0.00 27 1013.6
20260901003526 90 129 1.7 5.2 0.00 0.00 0.00 27 1013.6
20260901002521 91 136 1.7 5.2 0.00 0.00 0.00 26 1013.5
20260901001517 92 127 1.7 6.1 0.00 0.00 0.00 25 1013.4
20260901000528 92 118 3.5 7.8 0.00 0.00 0.00 26 1013.5
20260831235523 93 109 3.5 8.7 0.00 0.00 0.00 26 1013.4
20260831234519 93 128 3.5 6.1 0.00 0.00 0.00 25 1013.6
20260831233541 94 133 2.6 7.0 0.00 0.00 0.00 25 1013.5
20260831232530 94 146 2.6 6.1 0.00 0.00 0.00 25 1013.6
20260831231524 94 145 1.7 6.1 0.00 0.00 0.00 25 1013.5
20260831230519 94 110 4.3 7.8 0.00 0.00 0.00 24 1013.6
20260831225549 95 133 3.5 7.8 0.00 0.00 0.00 24 1013.6
20260831224524 95 109 5.2 9.6 0.00 0.00 0.00 25 1013.6
20260831223519 94 136 2.6 7.8 0.00 0.00 0.00 26 1013.7
20260831222529 95 128 2.6 8.7 0.00 0.00 0.00 25 1013.8
20260831221524 97 139 3.5 8.7 0.00 0.00 0.00 24 1013.9
20260831220519 95 141 2.6 7.8 0.00 0.00 0.00 25 1013.8
20260831215529 97 157 2.6 6.1 0.00 0.00 0.00 23 1013.9
20260831214524 99 148 2.6 6.1 0.00 0.00 0.00 22 1014.1
20260831213519 99 174 2.6 6.1 0.00 0.00 0.00 22 1014.1
20260831212529 100 130 3.5 7.8 0.00 0.00 0.00 21 1014.2
20260831211524 99 109 3.5 7.8 0.00 0.00 0.00 22 1014.3
20260831210519 98 137 3.5 9.6 0.00 0.00 0.00 22 1014.4
20260831205530 98 109 4.3 7.8 0.00 0.00 0.00 22 1014.6
20260831204524 99 94 4.3 7.8 0.00 0.00 0.00 23 1014.7
20260831203519 98 130 5.2 8.7 0.00 0.00 0.00 23 1015.0
20260831202530 99 124 6.1 11.3 0.00 0.00 0.00 23 1015.0
20260831201545 100 127 4.3 8.7 0.00 0.00 0.00 22 1015.2